DW1920 Weather Reports


time (UTC)temp
C
wind
direction
speed
KPH
gust
KPH
rain 1hr
cm
rain 24hr
cm
rain mn
cm
humidity
%
barometer
mb
20180716195002 20 236 3.2 8.0 0.00 0.00 0.00 93 1015.0
20180716194002 20 225 3.2 6.4 0.00 0.00 0.00 93 1015.0
20180716193002 20 219 4.8 8.0 0.00 0.00 0.00 93 1015.0
20180716192002 20 229 4.8 8.0 0.00 0.00 0.00 93 1015.1
20180716191002 20 221 4.8 8.0 0.00 0.00 0.00 92 1015.1
20180716190003 20 215 4.8 8.0 0.00 0.00 0.00 92 1015.2
20180716185002 20 217 3.2 6.4 0.00 0.00 0.00 93 1015.2
20180716184002 20 186 4.8 6.4 0.00 0.00 0.00 92 1015.2
20180716183002 20 182 4.8 8.0 0.00 0.00 0.00 91 1015.2
20180716182002 20 221 4.8 6.4 0.00 0.00 0.00 93 1015.4
20180716181002 20 202 3.2 6.4 0.00 0.00 0.00 93 1015.4
20180716180003 20 212 3.2 8.0 0.00 0.00 0.00 93 1015.5
20180716175002 20 219 3.2 8.0 0.00 0.00 0.00 94 1015.6
20180716174002 19 184 4.8 6.4 0.00 0.00 0.00 93 1015.6
20180716173002 19 184 4.8 6.4 0.00 0.00 0.00 93 1015.7
20180716172002 19 201 4.8 8.0 0.00 0.00 0.00 93 1015.8
20180716171002 19 183 4.8 6.4 0.00 0.00 0.00 93 1015.6
20180716170002 19 173 4.8 6.4 0.00 0.00 0.00 93 1015.6
20180716165002 19 172 3.2 6.4 0.00 0.00 0.00 93 1015.9
20180716164003 19 183 4.8 6.4 0.00 0.00 0.00 93 1015.8
20180716163002 19 189 4.8 6.4 0.00 0.00 0.00 93 1015.8
20180716162002 19 187 3.2 6.4 0.00 0.00 0.00 92 1016.0
20180716161002 19 189 3.2 6.4 0.00 0.00 0.00 92 1016.0
20180716160002 19 202 4.8 6.4 0.00 0.00 0.00 93 1015.9
20180716155002 19 210 3.2 6.4 0.00 0.00 0.00 93 1015.9
20180716154003 19 180 4.8 6.4 0.00 0.00 0.00 92 1015.7
20180716153002 19 147 1.6 4.8 0.00 0.00 0.00 93 1015.8
20180716152002 19 113 3.2 3.2 0.00 0.00 0.00 93 1015.8
20180716151002 19 130 3.2 3.2 0.00 0.00 0.00 93 1015.9
20180716150002 18 142 1.6 3.2 0.00 0.00 0.00 94 1016.0
20180716145003 18 134 1.6 3.2 0.00 0.00 0.00 93 1016.0
20180716144002 18 131 3.2 4.8 0.00 0.00 0.00 95 1016.0
20180716143002 18 132 3.2 3.2 0.00 0.00 0.00 95 1016.1
20180716142002 18 132 1.6 3.2 0.00 0.00 0.00 95 1016.0
20180716141002 18 74 1.6 3.2 0.00 0.00 0.00 96 1015.9
20180716140002 18 74 1.6 4.8 0.00 0.00 0.00 96 1015.9
20180716135002 18 73 3.2 6.4 0.00 0.00 0.00 96 1015.9
20180716134002 17 65 4.8 6.4 0.00 0.00 0.00 96 1015.8
20180716133002 17 45 4.8 6.4 0.00 0.00 0.00 96 1015.8
20180716132002 17 54 4.8 6.4 0.00 0.00 0.00 96 1015.8
20180716131007 17 68 6.4 9.7 0.00 0.00 0.00 96 1015.8
20180716130002 17 72 8.0 9.7 0.00 0.00 0.00 97 1016.0
20180716125002 17 69 6.4 8.0 0.00 0.00 0.00 97 1015.9
20180716124002 17 71 4.8 6.4 0.00 0.00 0.00 97 1016.0
20180716123002 17 81 4.8 4.8 0.00 0.00 0.00 97 1016.1
20180716122002 17 89 1.6 4.8 0.00 0.00 0.00 96 1016.1
20180716121002 17 86 4.8 6.4 0.00 0.00 0.00 97 1016.0
20180716120008 17 64 4.8 4.8 0.00 0.00 0.00 97 1015.8
20180716115002 17 54 1.6 3.2 0.00 0.00 0.00 97 1015.8
20180716114002 17 54 3.2 3.2 0.00 0.00 0.00 97 1015.7
20180716113003 17 54 1.6 3.2 0.00 0.00 0.00 97 1015.7
20180716112002 17 46 1.6 4.8 0.00 0.00 0.00 97 1015.5
20180716111002 17 30 3.2 4.8 0.00 0.00 0.00 97 1015.4
20180716110003 16 40 3.2 4.8 0.00 0.00 0.00 96 1015.5
20180716105002 16 43 3.2 8.0 0.00 0.00 0.00 97 1015.4
20180716104002 16 20 4.8 9.7 0.00 0.00 0.00 97 1015.3
20180716103002 16 30 4.8 11.3 0.00 0.00 0.00 97 1015.4
20180716102003 16 22 8.0 11.3 0.00 0.00 0.00 97 1015.4
20180716101002 16 20 6.4 12.9 0.00 0.00 0.00 96 1015.4
20180716100002 16 30 6.4 11.3 0.00 0.00 0.00 96 1015.4
20180716095002 16 29 6.4 11.3 0.00 0.00 0.00 96 1015.4
20180716094003 16 24 8.0 9.7 0.00 0.00 0.00 96 1015.4
20180716093002 16 24 4.8 8.0 0.00 0.00 0.00 96 1015.3
20180716092002 16 17 4.8 8.0 0.00 0.00 0.00 96 1015.3
20180716091002 16 20 6.4 8.0 0.00 0.00 0.00 96 1015.2
20180716090002 16 16 4.8 6.4 0.00 0.00 0.00 96 1015.2
20180716085002 16 307 1.6 4.8 0.00 0.00 0.00 96 1015.2
20180716084003 16 266 3.2 4.8 0.00 0.00 0.00 96 1015.3
20180716083002 16 242 3.2 4.8 0.00 0.00 0.00 96 1015.2
20180716082002 16 230 1.6 3.2 0.00 0.00 0.00 96 1015.2
20180716081002 16 230 1.6 4.8 0.00 0.00 0.00 96 1015.1
20180716080002 16 230 1.6 4.8 0.00 0.00 0.00 96 1015.1
20180716075002 16 230 1.6 4.8 0.00 0.00 0.00 95 1015.1
20180716074002 16 208 1.6 3.2 0.00 0.00 0.00 95 1015.0
20180716073002 16 208 3.2 3.2 0.00 0.00 0.00 96 1015.0
20180716072002 16 208 0.0 3.2 0.00 0.00 0.00 96 1014.9
20180716071003 16 208 1.6 1.6 0.00 0.00 0.00 96 1014.9
20180716070002 16 208 0.0 3.2 0.00 0.00 0.00 96 1014.9
20180716065002 16 208 1.6 3.2 0.00 0.00 0.00 96 1014.9
20180716064002 16 208 1.6 3.2 0.00 0.00 0.00 95 1015.0
20180716063002 16 208 0.0 0.0 0.00 0.00 0.00 95 1015.2
20180716062003 16 208 0.0 1.6 0.00 0.00 0.00 95 1015.2
20180716061002 17 207 0.0 3.2 0.00 0.00 0.00 95 1015.2
20180716060002 17 208 0.0 4.8 0.00 0.00 0.00 96 1015.2
20180716055003 17 231 3.2 4.8 0.00 0.00 0.00 95 1015.2
20180716054002 17 232 4.8 4.8 0.00 0.00 0.00 95 1015.3
20180716053002 17 224 3.2 4.8 0.00 0.00 0.00 95 1015.3
20180716052002 17 237 3.2 8.0 0.00 0.00 0.00 95 1015.4
20180716051002 17 235 4.8 8.0 0.00 0.00 0.00 95 1015.3
20180716050002 17 222 3.2 4.8 0.00 0.00 0.00 95 1015.3
20180716045002 17 206 3.2 4.8 0.00 0.00 0.00 95 1015.4
20180716044003 17 209 3.2 8.0 0.00 0.00 0.00 95 1015.4
20180716043002 17 235 3.2 6.4 0.00 0.00 0.00 95 1015.4
20180716042002 17 219 4.8 8.0 0.00 0.00 0.00 95 1015.4
20180716041003 17 227 3.2 6.4 0.00 0.00 0.00 95 1015.5
20180716040002 17 200 3.2 4.8 0.00 0.00 0.00 95 1015.4
20180716035002 17 256 3.2 8.0 0.00 0.00 0.00 95 1015.4
20180716034003 17 303 1.6 8.0 0.00 0.00 0.00 95 1015.5
20180716033002 17 203 4.8 8.0 0.00 0.00 0.00 95 1015.5
20180716032002 17 220 6.4 9.7 0.00 0.00 0.00 94 1015.3
20180716031002 17 188 6.4 14.5 0.00 0.00 0.00 95 1015.2
20180716030002 17 192 11.3 14.5 0.00 0.00 0.00 94 1015.1
20180716025002 17 193 12.9 14.5 0.00 0.00 0.00 95 1015.1
20180716024002 17 178 9.7 12.9 0.00 0.00 0.00 94 1015.1
20180716023002 17 184 6.4 6.4 0.00 0.00 0.00 94 1015.3
20180716022003 17 96 3.2 4.8 0.00 0.00 0.00 94 1015.4
20180716021003 17 89 4.8 6.4 0.00 0.00 0.00 94 1015.5
20180716020002 17 45 4.8 6.4 0.00 0.00 0.00 94 1015.6
20180716015002 17 37 3.2 6.4 0.00 0.00 0.00 94 1015.7
20180716014003 17 53 3.2 6.4 0.00 0.00 0.00 94 1015.5
20180716013002 18 58 4.8 8.0 0.00 0.00 0.00 94 1015.4
20180716011003 18 99 3.2 6.4 0.00 0.00 0.00 94 1015.3
20180716010002 18 68 3.2 4.8 0.00 0.00 0.00 93 1015.1
20180716005002 18 78 4.8 6.4 0.00 0.00 0.00 93 1014.9
20180716004002 18 62 4.8 6.4 0.00 0.00 0.00 93 1014.8
20180716003002 18 114 3.2 3.2 0.00 0.00 0.00 92 1014.9
20180716002002 18 140 1.6 3.2 0.00 0.00 0.00 92 1014.6
20180716001002 18 166 1.6 4.8 0.00 0.00 0.00 92 1014.6
20180716000002 18 116 1.6 4.8 0.00 0.00 0.00 91 1014.4
20180715235002 18 53 3.2 6.4 0.00 0.00 0.00 90 1014.6
20180715234002 19 54 1.6 3.2 0.00 0.00 0.00 91 1014.6
20180715233003 19 54 1.6 4.8 0.00 0.00 0.00 91 1014.5
20180715232002 19 62 3.2 4.8 0.00 0.00 0.00 90 1014.5
20180715231005 19 157 3.2 4.8 0.00 0.00 0.00 90 1014.4
20180715230003 20 170 3.2 4.8 0.00 0.00 0.00 89 1014.4
20180715225006 20 159 4.8 8.0 0.00 0.00 0.00 88 1014.3
20180715224002 20 150 6.4 8.0 0.00 0.00 0.00 88 1014.2
20180715223003 20 154 4.8 8.0 0.00 0.00 0.00 88 1014.2
20180715222002 20 164 6.4 8.0 0.00 0.00 0.00 88 1014.2
20180715221002 20 158 4.8 6.4 0.00 0.00 0.00 87 1014.2
20180715220002 20 157 4.8 8.0 0.00 0.00 0.00 86 1014.1
20180715215002 21 152 4.8 6.4 0.00 0.00 0.00 85 1014.0
20180715214002 21 153 4.8 8.0 0.00 0.00 0.00 85 1014.1
20180715213002 21 154 4.8 6.4 0.00 0.00 0.00 83 1014.1
20180715212002 21 113 4.8 6.4 0.00 0.00 0.00 86 1014.1
20180715211004 21 141 4.8 4.8 0.00 0.00 0.00 85 1014.1
20180715210007 21 139 4.8 6.4 0.00 0.00 0.00 86 1014.1
20180715205002 21 150 3.2 6.4 0.00 0.00 0.00 86 1014.2
20180715204002 21 184 4.8 9.7 0.00 0.00 0.00 85 1014.4
20180715203003 21 206 4.8 8.0 0.00 0.00 0.00 85 1014.4
20180715202003 21 205 4.8 8.0 0.00 0.00 0.00 84 1014.3
20180715201002 21 203 4.8 9.7 0.00 0.00 0.00 83 1014.2
20180715200002 21 222 6.4 11.3 0.00 0.00 0.00 87 1014.1